LEMUR 2 AFFIE-WAUWIE

导读

LEMUR 2 AFFIE-WAUWIE属于知名的Lemur-2卫星系列,该系列由美国企业主导开发,多为小型立方星,常搭载遥感、导航掩星等载荷,服务于气象监测、船舶跟踪等领域。 该卫星发射国家暂未明确标注,定于2025年11月2日发射,旨在延续Lemur-2星座的地球观测任务,扩充全球数据采集能力,为相关应用领域提供持续的空间数据支撑。

基本信息
目录编号:
66295
目录名称:
LEMUR 2 AFFIE-WAUWIE
国际标识:
2025-248C
轨道中心:
EARTH
卫星名称:
LEMUR 2 AFFIE-WAUWIE
卫星全名:
LEMUR 2 AFFIE-WAUWIE
卫星状态:
在轨 (已飞行306 天)
发射日期:
2025-11-02 UTC
国别 :
美国 (US)
星等 :
--
轨道信息
数据来源 国际轨道数据
星历时间: 2026-09-02T20:02:26+0800
1天前
查看轨道信息
半长轴: 6854.578km
偏心率: 0.0007083
轨道倾角: 45.390°
近地点辐角 188.588°
升交点赤经 55.233°
平近点角 171.489°
近地点: 471.585km
远地点: 481.297km
周期: 94.131分钟
每日圈数: 15.297898
详细信息
使用方式:
暂无
2D轨道图
3D轨道图
轨道高度分析图
轨道倾角分析图
轨道综合分析图
查看轨道综合分析图
交会数据列表
事件ID 空间交会对象 最接近时刻(TCA) 交会距离 交会风险概率(CRP) 交会风险指数(CRI) 操作
CDM_260828-141605-799206-629522
2026-08-28T
14:16:14+0000
1.789 km
极远距离
2.561487E-6 低风险 0.43
CDM_260904-062306-196406-629523
2026-09-04T
06:23:17+0000
1.926 km
极远距离
2.553273E-6 低风险 0.43
CDM_260827-200006-418706-629521
2026-08-27T
20:00:01+0000
1.936 km
极远距离
1.889076E-6 低风险 0.41
CDM_260827-223005-957006-629521
2026-08-27T
22:30:23+0000
1.936 km
极远距离
1.255057E-6 低风险 0.37